Date,TemperatureHighF,TemperatureAvgF,TemperatureLowF,DewpointHighF,DewpointAvgF,DewpointLowF,HumidityHigh,HumidityAvg,HumidityLow,PressureMaxIn,PressureMinIn,WindSpeedMaxMPH,WindSpeedAvgMPH,GustSpeedMaxMPH,PrecipitationSumIn
2014-1-1,50,36,27,33,27,22,86,71,49,30.41,30.13,3,0,9,0.00
2014-1-2,46,36,31,38,32,25,96,83,64,30.13,29.57,1,0,3,0.40
2014-1-3,34,26,20,33,12,4,96,58,37,30.49,29.58,5,2,14,0.00
2014-1-4,40,28,16,24,13,4,75,55,34,30.55,30.29,2,1,9,0.00
2014-1-5,58,44,35,57,38,24,98,80,60,30.29,29.72,3,0,12,0.01
2014-1-6,60,44,15,59,34,-7,97,71,34,30.08,29.51,5,2,19,0.54
2014-1-7,21,14,7,2,-6,-10,57,42,31,30.47,30.08,3,1,15,0.00
2014-1-8,38,24,11,15,6,0,76,49,29,30.62,30.46,2,0,9,0.00
2014-1-9,46,35,28,28,19,13,81,53,38,30.61,30.47,3,1,7,0.00
2014-1-10,40,36,32,39,34,27,98,91,79,30.51,30.11,2,0,4,0.37
2014-1-11,64,49,38,64,49,38,100,98,92,30.10,29.48,5,1,13,0.65
2014-1-12,55,47,39,49,36,31,95,67,45,30.13,29.57,3,1,9,0.00
2014-1-13,61,48,35,40,36,30,86,65,44,30.14,29.92,4,1,14,0.00
2014-1-14,52,47,40,48,44,39,99,92,64,29.93,29.69,2,0,6,0.67
2014-1-15,56,43,34,48,40,34,100,92,68,29.96,29.82,5,1,10,0.29
2014-1-16,40,33,30,34,30,28,96,89,68,30.02,29.90,4,1,7,0.12
2014-1-17,51,38,27,35,30,25,94,73,45,30.00,29.79,2,0,8,0.00
2014-1-18,42,32,23,35,18,12,79,56,38,30.00,29.78,4,1,14,0.00
2014-1-19,51,38,24,29,23,15,69,56,41,29.98,29.79,4,1,8,0.00
2014-1-20,59,46,38,30,27,22,62,47,31,29.86,29.67,4,2,9,0.00
2014-1-21,40,34,22,31,27,20,93,76,62,29.85,29.62,6,2,11,0.00
2014-1-22,24,16,11,15,3,-4,89,58,30,30.11,29.86,2,1,9,0.00
2014-1-23,30,20,10,12,5,-3,80,52,36,30.45,30.11,4,1,28,0.00
2014-1-24,26,17,9,0,-3,-5,56,42,27,30.58,30.19,2,0,13,0.00
2014-1-25,34,26,17,19,7,-1,57,45,36,30.18,29.53,3,1,29,0.00
2014-1-26,42,32,19,23,10,0,60,40,25,29.94,29.70,3,0,19,0.00
2014-1-27,62,43,27,37,26,5,66,51,38,30.14,29.71,5,1,34,0.00
2014-1-28,27,18,12,10,2,-11,87,52,26,30.41,30.14,3,1,9,0.00
2014-1-29,27,17,11,10,8,4,87,68,43,30.36,30.21,2,0,8,0.00
2014-1-30,35,20,8,10,7,4,88,60,33,30.47,30.22,2,0,35,0.01
2014-1-31,52,33,18,23,16,9,76,52,22,30.21,30.11,2,0,7,0.01
2014-2-1,56,41,25,30,25,17,85,55,29,30.28,30.01,3,1,7,0.00
2014-2-2,68,54,42,46,38,28,76,57,44,30.02,29.93,2,0,7,0.00
2014-2-3,53,42,34,44,38,32,96,88,73,30.31,29.88,5,2,12,0.89
2014-2-4,42,36,30,33,29,25,95,79,63,30.45,30.12,3,1,7,0.13
2014-2-5,48,37,32,43,35,28,97,91,64,30.11,29.71,2,0,9,0.12
2014-2-6,39,34,28,29,21,18,68,60,46,30.34,30.06,4,1,11,0.00
2014-2-7,44,35,26,29,26,23,92,70,48,30.33,30.24,1,0,6,0.00
2014-2-8,43,34,30,27,23,20,87,66,50,30.32,30.16,3,1,7,0.00
2014-2-9,40,35,30,32,26,20,82,70,63,30.19,29.98,3,0,8,0.00
2014-2-10,38,32,28,32,22,17,83,66,53,30.30,30.02,3,1,6,0.00
2014-2-11,36,27,22,17,12,10,62,53,39,30.45,30.30,3,1,7,0.00
2014-2-12,28,24,20,24,15,10,95,70,47,30.49,29.97,5,2,10,0.00
2014-2-13,35,32,26,34,31,24,97,96,94,29.95,29.29,6,2,13,0.33
2014-2-14,55,42,31,32,28,25,93,62,35,29.71,29.47,5,1,14,0.27
2014-2-15,42,37,29,37,30,16,95,78,51,29.98,29.54,4,1,16,0.13
2014-2-16,47,37,27,27,22,15,69,55,40,30.19,29.94,4,1,13,0.00
2014-2-17,41,32,25,23,18,13,79,58,36,30.43,30.19,5,1,10,0.00
2014-2-18,61,44,30,35,27,23,91,57,26,30.23,30.05,5,1,16,0.05
2014-2-19,70,54,40,56,41,24,95,62,37,30.10,29.75,5,1,19,0.04
2014-2-20,56,49,38,41,34,26,76,56,35,30.25,29.94,3,1,9,0.00
2014-2-21,71,56,42,64,51,37,98,83,63,29.98,29.70,7,1,18,0.49
2014-2-22,66,50,38,38,30,23,90,52,21,30.16,29.98,3,0,10,0.00
2014-2-23,70,54,40,37,31,27,63,45,22,30.07,29.82,5,1,10,0.00
2014-2-24,55,46,34,37,23,8,87,46,16,30.14,29.89,5,1,16,0.01
2014-2-25,46,36,30,27,21,12,81,55,39,30.13,29.97,3,0,6,0.00
2014-2-26,42,34,28,28,25,19,88,70,46,30.01,29.81,4,1,8,0.00
2014-2-27,49,35,26,22,12,4,81,44,17,30.07,29.68,5,2,17,0.00
2014-2-28,36,25,17,10,5,-1,55,43,28,30.41,30.07,4,1,10,0.00
2014-3-1,53,37,22,29,20,8,70,51,33,30.38,30.18,2,0,7,0.00
2014-3-2,72,50,36,54,38,27,92,68,40,30.19,29.89,4,1,13,0.08
2014-3-3,40,26,15,38,22,7,94,87,68,30.34,29.89,5,2,12,0.02
2014-3-4,33,23,12,16,11,6,79,61,43,30.41,30.22,3,1,7,0.06
2014-3-5,44,34,26,20,17,14,66,50,33,30.33,30.16,4,1,8,0.08
2014-3-6,34,31,28,25,21,16,81,66,52,30.49,30.28,4,3,11,0.01
2014-3-7,38,34,30,35,30,25,92,86,77,30.29,29.90,4,2,11,0.16
2014-3-8,68,47,28,43,35,26,93,66,36,30.01,29.87,2,0,8,0.00
2014-3-9,61,52,42,40,37,28,73,58,42,30.06,29.89,3,1,8,0.02
2014-3-10,65,49,33,36,32,28,88,55,29,30.01,29.70,2,0,9,0.00
2014-3-11,80,64,50,43,39,34,65,41,25,29.74,29.60,2,0,9,0.00
2014-3-12,68,58,41,59,46,24,91,64,47,29.63,29.11,6,2,16,0.05
2014-3-13,41,34,27,24,8,-2,57,35,17,30.20,29.50,5,2,18,0.00
2014-3-14,61,43,24,23,18,12,76,41,20,30.28,29.98,4,1,14,0.03
2014-3-15,72,59,50,38,32,23,49,37,22,30.02,29.85,5,2,15,0.00
2014-3-16,54,44,35,32,29,25,89,56,36,30.12,29.99,5,2,12,0.05
2014-3-17,31,28,27,30,26,25,95,92,89,30.06,29.93,3,2,7,0.00
2014-3-18,37,32,27,34,29,26,94,88,74,30.20,30.02,4,2,10,0.19
2014-3-19,45,38,34,44,36,31,98,91,80,30.21,29.89,2,0,5,0.17
2014-3-20,64,52,42,44,34,21,98,58,20,30.01,29.85,6,1,15,0.00
2014-3-21,70,53,36,36,31,24,74,44,26,30.09,29.96,3,1,11,0.00
2014-3-22,74,61,47,42,38,33,66,44,30,30.00,29.84,4,1,14,0.00
2014-3-23,59,44,35,36,33,28,95,68,42,30.13,29.95,4,1,11,0.11
2014-3-24,46,35,26,30,15,11,80,46,26,30.32,30.13,5,1,12,0.00
2014-3-25,47,35,30,34,29,22,94,78,49,30.14,29.78,4,1,10,0.05
2014-3-26,42,34,28,29,17,10,93,54,28,30.33,29.88,4,2,17,0.00
2014-3-27,57,39,23,27,20,13,88,49,25,30.48,30.25,3,1,11,0.00
2014-3-28,68,56,42,58,46,27,92,70,47,30.24,30.03,5,1,16,0.00
2014-3-29,64,61,58,63,60,57,99,98,92,30.10,29.52,3,1,13,0.70
2014-3-30,63,46,39,62,45,37,99,94,88,29.83,29.43,3,1,12,0.40
2014-3-31,70,53,39,41,33,30,93,50,23,30.07,29.83,6,1,15,0.01
2014-4-1,75,56,39,45,38,32,83,53,29,30.17,29.97,2,0,8,0.08
2014-4-2,78,62,47,46,43,40,87,55,27,30.06,29.96,3,1,9,0.05
2014-4-3,69,61,53,50,47,40,84,61,41,30.13,29.91,3,1,9,0.00
2014-4-4,83,63,51,60,52,46,90,70,33,29.91,29.63,2,0,6,0.00
2014-4-5,70,60,49,57,40,29,89,51,27,30.11,29.69,3,1,10,0.00
2014-4-6,64,50,39,35,29,24,67,45,23,30.25,30.11,3,1,12,0.00
2014-4-7,58,50,42,58,45,28,99,85,47,30.16,29.64,2,1,7,0.98
2014-4-8,69,61,53,60,50,39,99,71,38,29.67,29.50,3,1,10,0.01
2014-4-9,68,58,50,44,39,35,76,51,30,30.04,29.66,3,1,10,0.00
2014-4-10,75,60,42,42,38,34,89,48,26,30.23,30.05,3,0,11,0.00
2014-4-11,81,68,54,48,44,41,68,44,27,30.11,29.94,3,0,13,0.00
2014-4-12,80,66,56,56,51,48,78,59,39,30.24,30.02,3,1,8,0.00
2014-4-13,84,70,57,59,56,52,85,63,42,30.16,30.01,2,0,10,0.00
2014-4-14,79,70,62,63,58,55,86,67,46,30.05,29.80,5,1,16,0.00
2014-4-15,72,62,37,67,57,35,97,86,70,30.03,29.54,5,2,18,0.79
2014-4-16,54,44,34,34,24,18,89,49,25,30.50,30.00,3,1,10,0.00
2014-4-17,61,46,32,38,33,24,86,62,40,30.61,30.49,3,1,9,0.00
2014-4-18,55,46,35,41,36,33,90,70,50,30.53,30.27,2,0,6,0.00
2014-4-19,65,54,46,45,43,37,88,67,44,30.28,30.19,4,1,10,0.00
2014-4-20,67,57,47,41,38,31,63,49,35,30.34,30.25,4,2,10,0.00
2014-4-21,76,56,40,47,37,28,75,50,25,30.25,29.90,2,0,6,0.00
2014-4-22,84,64,49,57,51,46,90,64,32,29.90,29.57,2,0,8,0.00
2014-4-23,69,60,49,56,40,33,77,51,29,29.97,29.61,3,1,14,0.00
2014-4-24,70,55,39,37,32,24,82,46,18,30.13,29.97,3,0,6,0.00
2014-4-25,75,59,47,62,51,32,98,77,49,30.01,29.65,3,1,15,0.99
2014-4-26,81,64,46,57,49,44,98,63,32,29.92,29.72,3,0,8,0.00
2014-4-27,79,64,53,50,45,36,78,52,32,30.06,29.86,2,0,8,0.00
2014-4-28,60,54,49,51,47,42,97,79,60,30.06,29.95,2,0,7,0.37
2014-4-29,57,52,49,56,52,47,99,98,95,30.10,30.00,3,1,6,0.64
2014-4-30,74,65,57,73,64,56,100,97,88,30.07,29.84,3,1,17,1.22
2014-5-1,81,71,66,67,64,56,97,79,46,29.84,29.69,2,0,18,0.01
2014-5-2,72,63,54,62,46,39,86,56,36,29.88,29.73,3,1,8,0.00
2014-5-3,78,63,53,52,48,42,86,59,30,29.86,29.75,3,0,11,0.00
2014-5-4,86,69,51,53,47,41,88,49,27,29.91,29.71,2,0,11,0.00
2014-5-5,69,58,51,53,45,34,91,64,33,30.03,29.88,2,0,6,0.04
2014-5-6,78,63,55,58,54,50,91,75,48,30.01,29.88,1,0,5,0.00
2014-5-7,80,67,58,62,55,46,92,70,36,30.17,30.01,1,0,6,0.00
2014-5-8,93,76,63,70,63,56,96,68,36,30.12,29.99,1,0,6,0.00
2014-5-9,92,76,63,67,61,56,89,63,34,30.07,29.93,2,0,19,0.09
2014-5-10,80,71,63,68,64,61,96,79,60,30.03,29.94,4,1,13,1.01
2014-5-11,88,72,59,64,60,58,98,72,37,30.12,29.98,2,0,41,0.00
2014-5-12,93,76,62,72,64,60,96,71,37,30.14,30.05,2,0,59,0.00
2014-5-13,98,81,68,74,68,63,86,69,39,30.12,30.02,1,0,4,0.02
2014-5-14,74,69,65,68,66,63,96,90,81,30.17,30.06,2,0,3,0.00
2014-5-15,84,72,63,71,67,63,99,86,60,30.10,29.87,3,1,12,0.47
2014-5-16,76,67,58,69,60,49,99,81,52,29.92,29.73,3,1,11,1.58
2014-5-17,71,60,50,50,46,41,90,64,35,30.13,29.92,2,0,8,0.00
2014-5-18,70,59,52,49,44,40,86,59,37,30.23,30.13,2,0,7,0.00
2014-5-19,78,61,45,48,43,37,92,58,28,30.30,30.18,2,0,6,0.00
2014-5-20,84,67,52,57,52,45,81,60,35,30.22,29.99,0,0,18,0.00
2014-5-21,88,74,62,74,64,57,92,74,46,30.00,29.84,1,0,13,0.14
2014-5-22,91,74,66,70,67,65,98,83,44,29.86,29.74,2,0,16,0.09
2014-5-23,84,70,62,66,56,48,98,64,41,29.99,29.86,3,0,11,0.00
2014-5-24,80,66,55,57,52,46,83,60,43,30.10,29.99,3,0,8,0.00
2014-5-25,85,70,56,58,56,53,91,64,34,30.16,30.08,1,0,43,0.00
2014-5-26,89,75,60,67,62,56,92,67,45,30.14,29.98,2,0,39,0.00
2014-5-27,92,79,68,71,68,65,91,70,45,30.00,29.85,1,0,55,0.00
2014-5-28,93,78,68,72,68,61,96,76,47,29.99,29.85,1,0,5,0.32
2014-5-29,68,62,60,68,61,58,98,96,93,30.15,29.99,2,0,5,0.03
2014-5-30,72,64,60,63,61,58,98,89,71,30.12,30.05,2,0,4,0.01
2014-5-31,82,69,58,59,54,48,98,66,33,30.22,30.08,4,1,8,0.00
2014-6-1,83,67,54,55,53,50,93,65,38,30.34,30.24,1,0,0,0.00
2014-6-2,84,66,52,61,53,46,83,65,43,30.28,30.06,2,0,9,0.00
2014-6-3,91,75,59,72,64,55,88,70,45,30.08,29.85,2,0,8,0.00
2014-6-4,96,80,67,71,66,61,92,67,35,29.86,29.69,2,0,7,0.05
2014-6-5,85,74,68,72,66,61,98,77,52,29.85,29.60,3,1,9,0.35
2014-6-6,86,74,60,62,57,54,90,57,41,29.96,29.85,2,1,1,0.00
2014-6-7,88,71,59,68,59,56,92,68,37,30.03,29.92,2,0,5,0.01
2014-6-8,85,74,63,71,64,59,89,72,56,29.97,29.82,2,1,8,0.00
2014-6-9,88,77,70,73,68,63,92,75,62,29.89,29.82,1,0,9,0.00
2014-6-10,94,81,72,73,72,69,99,77,50,29.90,29.83,1,0,5,0.16
2014-6-11,91,76,67,77,70,66,99,83,59,29.96,29.85,4,0,8,0.65
2014-6-12,77,71,68,75,71,68,100,99,88,29.92,29.80,2,0,5,2.17
2014-6-13,86,74,69,76,71,67,100,92,67,29.86,29.72,4,0,8,0.94
2014-6-14,86,73,64,68,63,57,100,74,40,30.08,29.85,3,0,7,0.01
2014-6-15,87,72,59,66,60,56,91,69,49,30.19,30.07,1,0,5,0.00
2014-6-16,96,80,66,75,70,64,94,73,45,30.12,30.02,1,0,19,0.00
2014-6-17,99,84,72,76,72,69,93,71,39,30.09,29.98,1,0,141,0.00
2014-6-18,100,86,73,77,72,68,85,65,43,30.01,29.94,1,0,5,0.00
2014-6-19,96,80,70,76,71,67,97,75,43,30.00,29.90,4,0,7,0.26
2014-6-20,90,77,70,70,69,66,98,77,48,30.01,29.90,2,0,7,0.00
2014-6-21,87,77,72,74,71,69,95,83,62,29.91,29.78,2,0,70,0.01
2014-6-22,79,72,67,70,66,63,97,83,66,29.99,29.83,2,1,5,0.00
2014-6-23,86,73,62,66,63,59,97,72,46,30.13,29.98,2,0,7,0.00
2014-6-24,90,76,64,72,67,62,94,75,50,30.14,29.98,1,0,5,0.00
2014-6-25,92,80,72,77,73,70,97,81,59,30.00,29.81,2,0,7,0.00
2014-6-26,91,81,72,72,70,68,96,71,50,29.96,29.84,3,1,6,0.00
2014-6-27,92,80,72,73,70,67,91,72,47,30.13,29.96,2,0,5,0.00
2014-6-28,87,76,68,70,65,60,95,72,47,30.23,30.13,2,0,6,0.00
2014-6-29,89,75,62,65,61,58,91,65,42,30.23,30.09,1,0,5,0.00
2014-6-30,90,78,67,72,67,63,88,70,53,30.11,29.93,2,0,7,0.00
2014-7-1,94,82,70,76,71,64,84,70,54,29.96,29.83,2,0,9,0.00
2014-7-2,99,87,76,80,75,72,88,70,49,29.92,29.82,1,0,5,0.00
2014-7-3,96,83,76,76,73,70,85,73,51,29.96,29.86,2,0,8,0.00
2014-7-4,86,76,69,70,61,53,89,62,36,30.16,29.84,4,2,13,0.00
2014-7-5,88,74,64,58,53,50,70,50,30,30.26,30.16,2,0,6,0.00
2014-7-6,91,75,60,66,61,55,84,63,41,30.16,29.96,2,0,8,0.00
2014-7-7,96,82,69,68,66,62,84,61,39,29.97,29.83,2,1,11,0.00
2014-7-8,98,85,75,72,68,62,81,58,36,29.92,29.75,3,1,11,0.02
2014-7-9,92,78,73,74,71,68,96,82,54,29.97,29.83,2,0,9,0.26
2014-7-10,78,74,70,74,72,69,97,94,84,30.09,29.95,1,0,4,0.13
2014-7-11,90,76,67,72,69,66,99,82,51,30.19,30.08,1,0,5,0.00
2014-7-12,92,80,70,73,70,66,97,76,47,30.20,30.09,1,0,7,0.00
2014-7-13,93,82,73,76,72,70,94,73,52,30.11,29.92,3,1,10,0.00
2014-7-14,96,83,76,82,74,70,96,75,52,29.94,29.78,2,0,8,0.20
2014-7-15,92,78,71,78,74,70,97,88,59,29.81,29.68,3,0,9,0.16
2014-7-16,85,76,70,71,65,60,98,71,46,29.91,29.75,3,0,7,0.00
2014-7-17,88,76,66,64,59,56,77,58,36,30.10,29.91,2,0,5,0.00
2014-7-18,87,75,64,64,61,55,93,64,38,30.19,30.10,2,0,5,0.00
2014-7-19,85,75,68,66,62,54,83,66,40,30.17,30.08,2,0,5,0.00
2014-7-20,87,76,68,71,66,64,88,71,50,30.10,30.03,1,0,4,0.00
2014-7-21,81,76,73,73,71,70,93,86,75,30.16,30.07,1,0,4,0.00
2014-7-22,90,78,71,74,71,70,96,80,59,30.17,30.05,1,0,3,0.00
2014-7-23,96,83,71,76,73,70,97,75,51,30.07,29.80,2,0,11,0.00
2014-7-24,84,74,68,74,71,67,99,90,72,29.93,29.81,3,0,9,1.74
2014-7-25,90,73,63,67,64,62,100,78,42,30.05,29.92,1,0,5,0.01
2014-7-26,91,78,68,75,71,65,94,79,58,30.00,29.87,2,0,8,0.00
2014-7-27,86,78,71,76,72,70,98,85,67,29.91,29.67,2,0,7,0.23
2014-7-28,78,77,77,73,73,73,88,88,87,29.67,29.60,1,1,7,0.00
2014-7-29,81,72,64,61,57,54,77,61,44,30.00,29.82,2,0,4,0.00
2014-7-30,83,72,60,62,57,54,85,61,42,30.08,30.00,1,0,5,0.00
2014-7-31,84,74,63,70,66,61,94,77,56,30.12,30.05,1,0,5,0.00
2014-8-1,74,70,63,71,68,63,98,95,86,30.17,30.10,1,0,4,0.83
2014-8-2,74,68,63,70,66,63,99,94,82,30.13,30.05,2,0,3,0.13
2014-8-3,85,74,68,71,70,68,99,86,61,30.08,29.99,1,0,3,0.33
2014-8-4,88,76,69,73,70,68,98,82,59,30.09,30.01,1,0,4,0.00
2014-8-5,91,78,69,72,70,66,98,79,49,30.05,29.92,1,0,4,0.00
2014-8-6,90,76,69,74,70,66,96,82,49,29.94,29.86,1,0,4,0.02
2014-8-7,86,75,67,70,67,63,97,77,52,30.03,29.90,2,0,5,0.00
2014-8-8,84,74,64,68,65,61,94,73,49,30.10,30.01,1,0,3,0.00
2014-8-9,80,73,67,68,66,64,91,79,65,30.12,30.06,1,0,4,0.00
2014-8-10,86,74,64,68,65,62,96,76,53,30.12,30.05,1,0,5,0.00
2014-8-11,83,73,63,72,67,61,96,82,61,30.09,29.98,1,0,4,0.02
2014-8-12,86,76,71,79,74,70,98,93,77,29.99,29.73,1,0,4,0.20
2014-8-13,86,76,69,74,66,58,98,75,47,29.90,29.72,2,0,7,0.00
2014-8-14,85,72,60,65,61,57,92,69,45,29.98,29.86,2,0,9,0.00
2014-8-15,86,73,63,65,60,53,94,68,42,30.03,29.92,1,0,5,0.00
2014-8-16,89,75,64,67,62,52,93,68,29,30.00,29.93,2,0,5,0.00
2014-8-17,87,76,68,70,67,61,94,76,53,29.94,29.88,1,0,5,0.00
2014-8-18,85,75,69,74,71,67,95,88,65,29.90,29.76,1,0,3,0.07
2014-8-19,72,71,70,71,70,70,98,95,92,29.79,29.74,0,0,2,0.04
2014-8-20,90,79,70,74,70,68,97,78,54,30.00,29.87,1,0,0,0.02
2014-8-21,93,77,68,75,71,68,98,84,51,30.03,29.95,1,0,4,0.02
2014-8-22,88,78,71,74,71,69,95,81,60,29.98,29.90,2,0,5,0.00
2014-8-23,81,74,69,73,71,68,98,90,72,30.03,29.92,2,0,5,0.28
2014-8-24,79,70,64,68,63,59,98,80,55,30.10,30.02,2,1,7,0.00
2014-8-25,84,70,60,63,61,59,94,74,47,30.15,30.08,2,0,7,0.00
2014-8-26,89,73,60,65,61,58,96,70,38,30.14,30.05,2,0,7,0.00
2014-8-27,92,75,61,67,64,59,96,70,39,30.07,29.90,2,0,5,0.00
2014-8-28,93,80,70,72,67,62,90,66,40,30.03,29.87,2,1,5,0.00
2014-8-29,89,76,66,67,62,58,78,62,43,30.17,30.04,2,0,6,0.00
2014-8-30,92,78,71,75,70,64,88,75,59,30.20,30.08,2,0,5,0.00
2014-8-31,77,76,75,74,73,73,94,91,88,30.12,30.10,0,0,3,0.00
2014-9-1,95,84,76,76,73,70,92,73,46,30.04,29.92,2,0,10,0.00
2014-9-2,100,85,73,74,71,67,90,66,36,29.98,29.84,2,0,18,0.00
2014-9-3,90,81,74,73,71,70,89,73,53,30.10,29.89,3,0,9,0.00
2014-9-4,92,79,73,76,72,69,92,81,58,30.14,30.05,2,0,7,0.00
2014-9-5,93,80,72,78,73,69,96,80,58,30.15,30.02,2,0,13,0.00
2014-9-6,92,82,74,78,74,71,94,78,55,30.03,29.86,2,0,7,0.11
2014-9-7,79,74,69,74,65,61,90,75,57,30.13,29.90,3,1,5,0.01
2014-9-8,71,68,64,69,65,60,98,91,75,30.15,30.10,2,1,4,0.33
2014-9-9,76,69,64,71,67,63,99,95,83,30.12,30.04,2,1,4,0.06
2014-9-10,85,73,66,70,67,65,98,84,56,30.11,29.99,1,0,2,0.00
2014-9-11,90,78,67,75,71,66,97,81,58,30.01,29.86,2,0,5,0.00
2014-9-12,79,72,67,74,64,60,94,77,63,30.10,29.93,3,1,4,0.01
2014-9-13,72,68,63,69,64,57,96,87,80,30.18,30.05,1,0,2,0.16
2014-9-14,75,64,56,59,55,51,86,73,53,30.28,30.18,2,0,4,0.00
2014-9-15,63,63,63,58,58,58,84,84,83,30.20,30.17,0,0,1,0.00
2014-9-16,81,74,64,66,63,57,98,69,54,30.01,29.93,3,0,6,0.00
2014-9-17,80,68,59,61,58,55,88,70,48,30.02,29.92,1,0,5,0.00
2014-9-18,78,67,59,65,61,58,97,82,60,30.07,29.93,1,0,4,0.00
2014-9-19,81,69,62,63,60,57,94,75,49,30.25,30.06,1,0,5,0.00
2014-9-20,84,70,58,65,61,57,96,75,44,30.25,30.00,1,0,7,0.00
2014-9-21,90,74,62,69,64,61,96,75,43,30.00,29.66,2,0,8,0.00
2014-9-22,80,71,61,66,54,48,74,56,39,30.17,29.74,3,1,8,0.00
2014-9-23,70,60,53,51,48,45,78,66,50,30.34,30.17,2,0,43,0.00
2014-9-24,64,60,55,62,58,50,98,90,76,30.36,30.26,3,1,7,0.16
2014-9-25,67,63,61,63,62,60,99,96,86,30.25,30.17,2,1,5,0.02
2014-9-26,79,67,59,62,60,56,98,81,51,30.22,30.14,2,1,5,0.01
2014-9-27,84,66,53,61,57,52,98,75,43,30.22,30.14,1,0,4,0.00
2014-9-28,81,67,55,63,58,53,97,77,40,30.18,30.04,1,0,5,0.00
2014-9-29,71,65,61,66,63,60,97,94,84,30.04,29.93,0,0,2,0.13
2014-9-30,78,67,62,66,63,61,98,88,66,29.93,29.83,1,0,3,0.00
2014-10-1,80,68,60,66,63,59,98,84,60,30.03,29.90,1,0,4,0.00
2014-10-2,82,69,64,66,63,61,98,83,51,30.10,30.02,1,0,3,0.04
2014-10-3,78,69,63,69,64,61,95,85,70,30.08,29.71,2,0,6,0.02
2014-10-4,73,66,48,69,53,34,95,66,33,29.84,29.60,2,1,12,0.00
2014-10-5,66,53,41,43,40,37,91,64,36,29.99,29.81,2,0,7,0.00
2014-10-6,74,60,45,51,47,42,89,63,42,30.05,29.96,1,0,45,0.00
2014-10-7,77,66,56,62,55,50,94,69,54,30.08,29.91,2,0,51,0.00
2014-10-8,81,68,59,62,57,51,97,73,41,30.01,29.88,3,0,10,0.00
2014-10-9,78,62,50,54,51,47,94,69,37,30.14,30.01,2,0,12,0.00
2014-10-10,74,63,56,65,58,53,97,86,66,30.08,30.00,1,0,6,0.08
2014-10-11,58,56,54,58,55,53,98,96,93,30.14,29.93,2,0,5,0.04
2014-10-12,63,59,55,57,55,52,97,87,76,30.25,30.11,2,0,5,0.00
2014-10-13,80,68,59,69,63,57,98,86,65,30.26,30.16,1,0,8,0.00
2014-10-14,82,74,67,70,68,65,97,83,65,30.17,29.91,3,1,11,0.00
2014-10-15,74,67,57,71,65,56,98,94,86,29.91,29.75,2,0,10,0.01
2014-10-16,71,60,54,58,56,54,99,87,58,29.77,29.70,2,0,6,0.00
2014-10-17,75,62,51,56,54,50,96,77,49,29.85,29.71,2,0,8,0.00
2014-10-18,73,63,56,58,52,45,90,68,42,29.87,29.66,2,0,8,0.00
2014-10-19,64,54,46,46,40,34,86,60,34,30.11,29.87,2,0,3,0.00
2014-10-20,68,54,42,48,44,38,90,71,47,30.14,29.94,2,0,10,0.00
2014-10-21,70,60,51,56,51,47,93,73,49,29.94,29.78,2,0,7,0.00
2014-10-22,56,53,51,54,49,44,97,88,76,29.96,29.84,3,0,11,0.00
2014-10-23,68,55,45,50,46,43,91,74,51,29.95,29.85,3,1,12,0.00
2014-10-24,70,54,46,49,46,42,93,75,42,30.01,29.91,1,0,7,0.00
2014-10-25,72,55,40,48,44,39,96,70,36,30.00,29.74,1,0,21,0.00
2014-10-26,75,60,48,51,42,29,91,58,20,29.93,29.71,2,0,9,0.00
2014-10-27,75,56,40,44,40,33,92,60,25,30.10,29.93,1,0,59,0.00
2014-10-28,84,66,50,62,54,44,84,66,44,30.08,29.95,2,0,9,0.00
2014-10-29,76,65,54,63,58,51,89,78,61,29.98,29.85,3,1,6,0.00
2014-10-30,62,54,47,52,44,38,96,71,47,30.06,29.96,2,0,7,0.00
2014-10-31,59,50,42,44,40,38,86,69,50,30.02,29.78,2,0,32,0.00
2014-11-1,49,46,42,45,40,34,88,79,64,29.86,29.72,3,1,12,0.00
2014-11-2,52,44,35,35,29,23,75,56,35,30.26,29.86,5,2,19,0.00
2014-11-3,66,48,31,33,28,23,89,52,21,30.37,30.24,2,0,39,0.00
2014-11-4,74,60,47,44,38,31,64,46,24,30.24,30.13,1,0,6,0.00
2014-11-5,67,34,54,50,24,38,66,30,46,30.20,30.09,2,0,5,0.00
2014-11-6,64,38,48,60,36,44,95,58,68,30.09,29.65,2,0,11,0.00
2014-11-7,60,36,38,44,25,28,90,39,38,30.07,29.74,3,1,9,0.00
2014-11-8,56,35,32,39,25,27,84,48,42,30.10,29.94,2,0,21,0.03
2014-11-9,59,48,40,43,40,38,94,76,49,30.03,29.90,2,0,4,0.00
2014-11-10,67,49,36,46,41,34,97,76,44,30.14,30.03,2,0,6,0.00
2014-11-11,70,56,40,62,52,39,97,87,67,30.08,29.87,1,0,4,0.01
2014-11-12,72,61,49,61,51,33,99,74,39,30.08,29.85,4,1,8,0.00
2014-11-13,49,44,36,35,32,31,91,64,55,30.13,30.00,2,1,7,0.00
2014-11-14,42,35,28,35,24,17,93,67,39,30.31,30.05,2,0,8,0.03
2014-11-15,45,33,23,24,19,16,76,60,34,30.43,30.30,3,0,8,0.00
2014-11-16,50,42,30,39,27,22,87,57,39,30.38,30.03,2,0,5,0.00
2014-11-17,56,47,42,56,46,38,99,95,80,30.03,29.53,3,0,10,1.21
2014-11-18,43,32,23,37,15,8,79,51,36,30.29,29.77,4,1,15,0.01
2014-11-19,40,29,17,17,12,9,81,51,33,30.38,30.13,2,0,10,0.00
2014-11-20,56,46,34,29,25,16,61,43,35,30.13,29.92,4,2,13,0.00
2014-11-21,42,33,26,24,16,11,73,49,29,30.55,30.09,1,0,6,0.00
2014-11-22,51,35,22,21,19,15,90,56,28,30.56,30.29,2,0,19,0.00
2014-11-23,58,47,33,58,36,19,98,67,50,30.30,29.76,3,0,61,0.25
2014-11-24,74,67,58,63,61,58,99,82,58,29.82,29.65,4,2,16,0.05
2014-11-25,65,58,50,62,51,41,98,79,64,30.13,29.80,3,0,13,0.00
2014-11-26,49,40,35,45,39,33,97,95,84,30.10,29.82,4,1,10,1.35
2014-11-27,45,38,32,42,36,27,98,92,78,30.19,30.00,3,0,7,0.02
2014-11-28,42,33,27,27,24,20,90,73,43,30.33,30.18,2,0,10,0.00
2014-11-29,51,38,26,32,29,24,94,72,45,30.32,30.20,3,1,10,0.00
2014-11-30,68,50,37,47,39,30,81,67,46,30.21,30.10,4,1,14,0.00
2014-12-1,74,60,48,56,50,41,87,72,52,30.40,30.15,7,1,15,0.00
2014-12-2,47,40,38,41,37,36,97,90,77,30.52,30.32,4,1,12,0.01
2014-12-3,57,48,38,54,46,37,97,94,87,30.32,30.07,2,0,9,0.00
2014-12-4,48,42,37,45,32,28,91,67,51,30.46,30.26,3,1,9,0.07
2014-12-5,46,43,39,41,37,35,92,82,69,30.51,30.33,1,0,4,0.02
2014-12-6,54,48,42,53,46,39,98,92,83,30.33,30.00,4,0,11,0.36
2014-12-7,47,41,36,41,29,21,93,63,42,30.49,30.17,5,3,14,0.01
2014-12-8,39,36,33,33,27,21,94,72,58,30.51,30.16,4,2,9,0.00
2014-12-9,44,38,32,42,36,31,96,93,85,30.15,29.84,3,1,10,0.31
2014-12-10,49,40,33,37,32,26,95,74,56,29.88,29.82,3,1,14,0.00
2014-12-11,47,37,27,26,21,14,81,55,34,30.03,29.87,3,1,14,0.00
2014-12-12,51,40,32,27,22,14,81,49,31,30.13,30.03,3,1,8,0.00
2014-12-13,53,38,27,32,28,24,93,70,39,30.12,29.97,2,0,5,0.00
2014-12-14,34,30,28,29,27,26,94,89,80,30.01,29.98,0,0,1,0.00
2014-12-15,42,41,40,39,38,37,91,89,86,30.08,30.06,0,0,1,0.00
2014-12-16,47,43,36,47,41,35,98,95,86,30.06,29.86,2,0,10,0.18
2014-12-17,57,46,37,43,38,29,98,76,48,30.05,29.90,3,1,11,0.00
2014-12-18,45,37,28,30,26,23,89,66,43,30.18,30.06,2,0,8,0.00
2014-12-19,45,36,28,29,26,23,86,67,52,30.25,30.10,3,1,6,0.00
2014-12-20,38,34,28,26,24,22,81,68,57,30.33,30.23,2,0,5,0.00
2014-12-21,45,37,34,30,28,25,77,68,55,30.35,30.25,2,0,5,0.00
2014-12-22,36,35,34,35,32,29,97,90,74,30.29,30.05,3,1,7,0.29
2014-12-23,45,40,35,44,39,34,98,96,94,30.08,30.00,1,0,3,0.18
2014-12-24,63,50,44,63,50,43,100,99,97,30.00,29.57,3,0,12,0.93
2014-12-25,63,52,38,62,42,33,97,70,45,30.22,29.59,4,1,13,0.09
2014-12-26,57,41,30,38,33,28,98,76,45,30.33,30.22,3,0,7,0.00
2014-12-27,65,47,32,42,37,30,96,70,40,30.29,30.09,2,0,6,0.00
2014-12-28,62,54,50,51,46,40,96,75,61,30.09,29.92,2,0,7,0.02
2014-12-29,51,42,37,50,39,35,96,90,83,30.24,30.04,3,1,7,0.35
2014-12-30,42,36,27,36,28,23,92,74,49,30.42,30.22,4,1,8,0.00
2014-12-31,42,31,24,24,20,13,95,68,32,30.44,30.28,2,0,6,0.00
2015-1-1,46,37,26,28,21,17,72,54,36,30.28,30.11,4,1,12,0.00
2015-1-2,50,44,39,37,32,28,76,64,45,30.40,30.13,1,0,6,0.00